{"data":{"norad_id":69003,"epoch":"2026-09-20T00:44:03.681888Z","epoch_age_seconds":59554,"freshness":"FRESH","line1":"1 69003U 26100Z   26263.03059817  .00000767  00000+0  84231-4 0  9990","line2":"2 69003  97.7755 158.8030 0001798  73.2415 286.9001 14.90498398 20814","mean_motion":14.90498398,"eccentricity":0.0001798,"inclination_deg":97.7755,"raan_deg":158.803,"arg_perigee_deg":73.2415,"mean_anomaly_deg":286.9001,"bstar":8.4231e-5,"rev_number":2081,"period_min":96.611979048903,"perigee_km":595.12643817458,"apogee_km":597.6344746519,"semimajor_km":6974.5174564132,"source":"CELESTRAK","updated_at":"2026-09-20T09:00:24.626528Z"}}